Home   Weather   Mount Pearl   Past weeks

Flag for Canada Past Weather in Mount Pearl, Newfoundland and Labrador, Canada — Yesterday and Last 2 Weeks

Now
55 °F

Low clouds.


Feels Like: 50 °F
Forecast: 48 / 60 °F
Wind: 25 mph from West

Location: St. John's

Current Time: Aug 30, 2016 at 12:31:15 PM

Latest Report: Aug 30, 2016 at 11:30 AM


Visibility: 15 mi

Pressure: 29.24 "Hg

Humidity: 94%

Dew Point: 54 °F

Location of Mount PearlLocation

Past Weather in Mount Pearl — Graph

°F

Mount Pearl Temperature Yesterday

Maximum temperature yesterday: 70 °F (at 1:30 PM)
Minimum temperature yesterday: 50 °F (at 5:30 AM)
Average temperature yesterday: 59 °F

High & Low Weather Summary for the Past Weeks

 TemperatureHumidityPressure
High75 °F (Aug 17, 4:30 PM)100% (Aug 18, 3:30 AM)30.24 "Hg (Aug 18, 3:30 AM)
Low50 °F (Aug 20, 5:30 AM)38% (Aug 17, 3:30 PM)29.21 "Hg (Aug 30, 10:30 AM)
Average61 °F81%29.98 "Hg
* Reported Aug 15 11:30 AM — Aug 30 11:30 AM, Mount Pearl, Weather by CustomWeather, © 2016

Note: Actual official high and low records may vary slightly from our data, if they occured in-between our weather recording intervals... More about our weather records

Advertising

Mount Pearl Weather History for the Previous 24 Hours

Scroll right to see more
 ConditionsComfort  
Time TempWeatherWind HumidityBarometerVisibility
11:30 AM
Tue, Aug 30
55 °FLow clouds.25 mph94%29.24 "Hg15 mi
10:30 AM59 °FSprinkles. More clouds than sun.22 mph94%29.21 "Hg12 mi
9:30 AM55 °FSprinkles. Overcast.22 mph94%29.22 "Hg8 mi
8:30 AM57 °FSprinkles. Overcast.16 mph94%29.26 "Hg15 mi
7:30 AM59 °FBroken clouds.18 mph88%29.29 "Hg15 mi
6:30 AM61 °FOvercast.13 mph94%29.31 "Hg15 mi
5:30 AM59 °FLight rain. Fog.14 mph100%29.35 "Hg4 mi
4:30 AM59 °FLight rain. Fog.25 mph94%29.41 "Hg3 mi
3:30 AM57 °FRain. Fog.22 mph94%29.48 "Hg3 mi
2:30 AM57 °FMostly cloudy.28 mph88%29.54 "Hg15 mi
1:30 AM59 °FLight rain. Mostly cloudy.21 mph94%29.61 "Hg12 mi
12:30 AM57 °FLight rain. Mostly cloudy.21 mph94%29.68 "Hg12 mi
11:30 PM
Mon, Aug 29
55 °FLight rain. Mostly cloudy.17 mph94%29.76 "Hg12 mi
10:30 PM55 °FLight rain. Mostly cloudy.16 mph94%29.82 "Hg12 mi
9:30 PM57 °FLight rain. Mostly cloudy.16 mph94%29.87 "Hg12 mi
8:30 PM57 °FSprinkles. Mostly cloudy.13 mph88%29.90 "Hg12 mi
7:30 PM57 °FSprinkles. More clouds than sun.15 mph88%29.91 "Hg15 mi
6:30 PM61 °FSprinkles. Overcast.18 mph72%29.94 "Hg15 mi
6:25 PM61 °FSprinkles. Overcast.18 mph68%29.94 "Hg15 mi
5:30 PM63 °FOvercast.13 mph73%29.96 "Hg15 mi
4:30 PM64 °FMore clouds than sun.14 mph64%29.96 "Hg15 mi
3:30 PM66 °FMore clouds than sun.21 mph64%29.97 "Hg15 mi
2:30 PM68 °FMore clouds than sun.17 mph60%29.98 "Hg15 mi
1:30 PM70 °FMostly cloudy.20 mph60%30.01 "Hg15 mi
12:30 PM68 °FBroken clouds.13 mph69%30.03 "Hg15 mi
Weather by CustomWeather, © 2016

See weather overviewHow to use our weather pages